カタリナ彗星

C/2014 TG64 ( Catalina )

English version
Home page
Updated on June 11, 2016

---------------------------------------------------------------------

・ プロフィール

発見日 2014年10月14日
発見光度 19.1等
発見者 J. A. Johnson (Catalina Sky Survey)

・ 軌道要素

Epoch 2014 May 23.0 TT = JDT 2456800.5
T 2014 May 26.03266 TT                                  MPCW
q   3.2390729            (2000.0)            P               Q
n   0.01713515     Peri.  294.77811     +0.91409061     +0.28169349
a  14.9008424      Node    50.29311     -0.05968595     +0.80496113
e   0.7826248      Incl.   22.28171     -0.40109344     +0.52219379
P  57.5
From 51 observations 2014 Oct. 3-Nov. 23, mean residual 0".4.

・ 光度変化

        m1 = 12.0 + 5 logΔ + 10.0 log r

---------------------------------------------------------------------

軌道要素はM.P.E.C. 2014-Y44に掲載されたものです。
光度グラフはComet for Windowsで作成したものです。

---------------------------------------------------------------------

Copyright(C) Seiichi Yoshida (comet@aerith.net). All rights reserved.